STARLINK-4777 (53847 NORAD) Tracking and Keplerian Element Data

This shows tracking and keplerian element data for the satellite.

Feedback or suggestion? Click here.




ElementValue
Catalog53847
NameSTARLINK-4777
Epoch Orbit1053
Epoch Day325.33334491
Epoch Year2022
RAAN305.6407
Inclination53.2174
Eccentricity0.0001065
Argument of Perigee74.5264
Mean Anonmoly312.0943
Mean Motion15.66331478
Decay Rate-0.01141026
L11 53847U 22114AF 22325.33334491 -.01141026 00000+0 -11941-1 0 9994
L22 53847 53.2174 305.6407 0001065 74.5264 312.0943 15.66331478 10531



Live tracking and technical data element details for STARLINK-4777 (NORAD 53847). STARLINK-4777 can be tracked NOW for your location showing map with azimuth and elevation plus other details from your city location.







IsCatalogInMostPopularTable: catalog: 53847, numindb: -1

Insert: records affected: 1


GetName: 53847 STARLINK-4777

Hit Count: inserted at: Mon, 28 Nov 2022 04:02:36 GMT